Abingdon, VA

3:17 AM EDT on September 17, 2019 (GMT -0400)
Virginia Highlands

Weather History for KVJI - June, 2019

Change the Weather History Date:

Tuesday, June 4, 2019

  Actual Average (KTRI) Record (KTRI)
Temperature  
Mean Temperature 65 °F -  
Max Temperature 80 °F 79 °F 93 °F (2002)
Min Temperature 50 °F 57 °F 42 °F (1956)
Growing Degree Days 15 (Base 50)    
Moisture  
Dew Point 51 °F    
Average Humidity 68    
Maximum Humidity 88    
Minimum Humidity 41    
Precipitation  
Precipitation 0.00 in - - ()
Sea Level Pressure  
Sea Level Pressure 30.16 in    
Wind  
Wind Speed 3 mph (ENE)    
Max Wind Speed 9 mph    
Max Gust Speed -    
Visibility 10 miles    
Events      
Averages and records for this station are not official NWS values.
T = Trace of Precipitation, MM = Missing Value Source: NWS Daily Summary

Daily Weather History Graph

Daily Weather History Graph

Search for Another Location

Airport or City:

Astronomy

Jun. 04, 2019 Rise Set
Actual Time 6:10 AM EDT 8:43 PM EDT
Civil Twilight 5:39 AM EDT 9:13 PM EDT
Nautical Twilight 5:02 AM EDT 9:50 PM EDT
Astronomical Twilight 4:20 AM EDT 10:32 PM EDT
Moon 7:17 AM EDT (6/4) 10:10 PM EDT (6/4)
Length of Visible Light 15h 33m
Length of Day
14h 33m
New Moon, 2% of the Moon is Illuminated
Jun 4
New Moon
Jun 10
First Quarter
Jun 17
Full
Jun 25
Last Quarter
Jul 2
New

Hourly Weather History & Observations

Time (EDT) Temp. Heat Index Dew Point Humidity Pressure Visibility Wind Dir Wind Speed Gust Speed Precip Events Conditions
12:18 AM 53.6 °F - 48.2 °F 82% 30.19 in 10.0 mi Calm Calm - N/A   Clear
12:58 AM 55.4 °F - 46.4 °F 72% 30.18 in 10.0 mi Calm Calm - N/A   Clear
1:38 AM 53.6 °F - 46.4 °F 77% 30.18 in 10.0 mi Calm Calm - N/A   Clear
2:18 AM 53.6 °F - 46.4 °F 77% 30.17 in 10.0 mi Calm Calm - N/A   Clear
2:37 AM 53.6 °F - 46.4 °F 77% 30.18 in 10.0 mi Calm Calm - N/A   Clear
2:57 AM 55.4 °F - 46.4 °F 72% 30.18 in 10.0 mi NE 4.6 mph - N/A   Clear
3:37 AM 51.8 °F - 46.4 °F 82% 30.18 in 10.0 mi East 5.8 mph - N/A   Clear
3:58 AM 50.0 °F - 46.4 °F 87% 30.18 in 10.0 mi East 4.6 mph - N/A   Clear
4:18 AM 51.8 °F - 46.4 °F 82% 30.18 in 10.0 mi East 6.9 mph - N/A   Clear
4:38 AM 50.0 °F - 46.4 °F 87% 30.18 in 10.0 mi ENE 6.9 mph - N/A   Clear
5:18 AM 51.8 °F - 46.4 °F 82% 30.18 in 10.0 mi East 4.6 mph - N/A   Clear
5:37 AM 51.8 °F - 46.4 °F 82% 30.18 in 10.0 mi East 5.8 mph - N/A   Clear
5:57 AM 50.0 °F - 46.4 °F 87% 30.18 in 10.0 mi ENE 4.6 mph - N/A   Clear
6:17 AM 51.8 °F - 46.4 °F 82% 30.18 in 10.0 mi ENE 6.9 mph - N/A   Clear
6:57 AM 51.8 °F - 46.4 °F 82% 30.20 in 10.0 mi East 5.8 mph - N/A   Clear
7:18 AM 51.8 °F - 48.2 °F 88% 30.21 in 10.0 mi East 5.8 mph - N/A   Clear
7:37 AM 53.6 °F - 46.4 °F 77% 30.22 in 10.0 mi East 5.8 mph - N/A   Clear
7:57 AM 55.4 °F - 46.4 °F 72% 30.22 in 10.0 mi ENE 5.8 mph - N/A   Clear
8:18 AM 57.2 °F - 48.2 °F 72% 30.22 in 10.0 mi ENE 4.6 mph - N/A   Clear
8:37 AM 57.2 °F - 48.2 °F 72% 30.22 in 10.0 mi ENE 6.9 mph - N/A   Clear
8:57 AM 59.0 °F - 48.2 °F 67% 30.22 in 10.0 mi ENE 4.6 mph - N/A   Clear
9:37 AM 62.6 °F - 48.2 °F 59% 30.23 in 10.0 mi ENE 6.9 mph - N/A   Clear
9:58 AM 64.4 °F - 48.2 °F 56% 30.22 in 10.0 mi East 9.2 mph - N/A   Clear
10:18 AM 66.2 °F - 46.4 °F 49% 30.22 in 10.0 mi ESE 9.2 mph - N/A   Clear
10:58 AM 69.8 °F - 46.4 °F 43% 30.21 in 10.0 mi East 9.2 mph - N/A   Clear
11:37 AM 71.6 °F - 48.2 °F 43% 30.19 in 10.0 mi ESE 6.9 mph - N/A   Clear
12:17 PM 73.4 °F - 48.2 °F 41% 30.19 in 10.0 mi East 5.8 mph - N/A   Clear
12:38 PM 75.2 °F - 50.0 °F 41% 30.19 in 10.0 mi Calm Calm - N/A   Clear
12:59 PM 75.2 °F - 51.8 °F 44% 30.18 in 10.0 mi Calm Calm - N/A   Clear
1:57 PM 78.8 °F - 53.6 °F 42% 30.17 in 10.0 mi WSW 5.8 mph - N/A   Clear
3:18 PM 80.6 °F 80.5 °F 55.4 °F 42% 30.14 in 10.0 mi WSW 8.1 mph - N/A   Clear
3:58 PM 80.6 °F 80.5 °F 55.4 °F 42% 30.12 in 10.0 mi West 4.6 mph - N/A   Clear
7:17 PM 80.6 °F 80.8 °F 57.2 °F 45% 30.07 in 10.0 mi West 5.8 mph - N/A   Clear
7:37 PM 78.8 °F - 57.2 °F 47% 30.07 in 10.0 mi West 4.6 mph - N/A   Clear
7:57 PM 75.2 °F - 57.2 °F 53% 30.06 in 10.0 mi West 3.5 mph - N/A   Clear
8:38 PM 73.4 °F - 59.0 °F 61% 30.07 in 10.0 mi Calm Calm - N/A   Clear
9:39 PM 69.8 °F - 60.8 °F 73% 30.09 in 10.0 mi Calm Calm - N/A   Clear
9:58 PM 68.0 °F - 60.8 °F 78% 30.09 in 10.0 mi Calm Calm - N/A   Scattered Clouds
10:59 PM 66.2 °F - 60.8 °F 83% 30.10 in 10.0 mi Calm Calm - N/A   Clear
11:18 PM 66.2 °F - 60.8 °F 83% 30.09 in 10.0 mi Calm Calm - N/A   Clear
11:37 PM 64.4 °F - 60.8 °F 88% 30.10 in 10.0 mi Calm Calm - N/A   Scattered Clouds
11:58 PM 66.2 °F - 60.8 °F 83% 30.09 in 10.0 mi Calm Calm - N/A   Scattered Clouds